Hourly Data Report for October 03, 2017

All times are specified in Local Standard Time (LST). Add 1 hour to adjust for Daylight Saving Time where and when it is observed.

GRAND MANAN SAR CS
NEW BRUNSWICK

44°42'43.400" N
66°48'06.900" W
78.20 m
8101925
71030
XGM

Download Data

Hourly Data (October 2017)
Hourly Data Report for October 3, 2017
Temp Definition
°C
Dew Point Temp Definition
°C
Rel Hum Definition
%
Wind Dir Definition
10's deg

Wind Spd Definition
km/h
Visibility Definition
km
Stn Press Definition
kPa
Hmdx Definition


Wind Chill Definition


Weather Definition


TIME
00:00 -0.3 -0.8 96   0   102.56     LegendNANA
01:00 -1.1 -1.4 98 31 4   102.59   -2 LegendNANA
02:00 -2.0 -2.3 98 30 4   102.65   -3 LegendNANA
03:00 -1.9 -2.0 99 29 3   102.67   -3 LegendNANA
04:00 -2.2 -2.3 99 30 4   102.70   -4 LegendNANA
05:00 -2.3 -2.4 99 30 4   102.75   -4 LegendNANA
06:00 -1.8 -1.9 100 30 2   102.82   -3 LegendNANA
07:00 -1.7 -1.8 100 30 3   102.85   -3 LegendNANA
08:00 2.2 2.0 98 30 4   102.88     LegendNANA
09:00 11.2 7.8 80 25 5   102.92     LegendNANA
10:00 11.9 5.5 65 26 9   102.89     LegendNANA
11:00 13.3 1.8 46 29 10   102.88     LegendNANA
12:00 13.7 2.3 46 25 11   102.84     LegendNANA
13:00 13.4 4.4 54 23 13   102.75     LegendNANA
14:00 13.4 4.2 54 23 13   102.72     LegendNANA
15:00 12.3 5.5 63 23 14   102.65     LegendNANA
16:00 12.9 5.8 62 23 17   102.54     LegendNANA
17:00 11.7 6.7 71 23 16   102.49     LegendNANA
18:00 10.8 7.2 78 23 15   102.42     LegendNANA
19:00 10.5 7.6 82 23 15   102.38     LegendNANA
20:00 10.8 7.8 82 23 16   102.30     LegendNANA
21:00 11.0 8.4 84 24 14   102.27     LegendNANA
22:00 10.9 8.5 85 24 13   102.23     LegendNANA
23:00 11.0 9.0 88 24 13   102.16     LegendNANA

Notes on Data Quality.

Legend

  • E = Estimated
  • M = Missing
  • NA = Not Available
  • ‡ = Partner data that is not subject to review by the National Climate Archives
Date modified: